Location: Igri�s
(42.2144°N, 0.4320°W)
Time: 17:44:34
(UTC+00:00)

NOSS 3-2 (A) - Pass Details

Date: 13 August 2020
Orbit: 796 x 1412 km, 63.4° (Epoch: 16 September)

Event Time Altitude Azimuth Distance (km) Brightness Sun altitude
Rises 19:26:58 0° 185° (S) 3,310 6.1 -4.6°
Reaches altitude 10° 19:29:31 10° 175° (S) 2,419 5.3 -5.0°
Maximum altitude 19:34:24 33° 113° (ESE) 1,436 3.9 -5.9°
Drops below altitude 10° 19:39:49 10° 51° (NE) 2,689 5.6 -6.8°
Sets 19:42:47 0° 43° (NE) 3,738 6.4 -7.3°
